Location: Arcizac
(43.0933°N, 0.0112°E)
Time: 00:21:19
(UTC+00:00)

USA 229 DEB - Pass Details

Date: 14 December 2019
Orbit: 995 x 1217 km, 63.4° (Epoch: 19 January)

Event Time Altitude Azimuth Distance (km) Brightness Sun altitude
Rises 18:40:04 0° 324° (NW) 3,953 7.0 -23.7°
Reaches altitude 10° 18:42:44 10° 327° (NNW) 3,023 6.3 -24.2°
Maximum altitude 18:49:59 71° 51° (NE) 1,236 3.8 -25.5°
Enters shadow 18:52:34 44° 121° (ESE) 1,591 4.2 -25.9°
